Regional Weather Roundup
Issued by NWS

Home | Current Version | Previous Version | Graphics & Text | Print | Product List | Glossary On
Versions: 1 2 3 4 5 6 7 8 9 10 11 12 13 14 15 16 17 18 19 20 21 22 23 24 25 26 27 28 29 30 31 32 33 34 35 36 37 38 39 40 41 42 43 44 45 46 47 48 49 50
000
ASUS43 KMKX 261800
RWRWI

WISCONSIN REGIONAL WEATHER ROUNDUP
NATIONAL WEATHER SERVICE MILWAUKEE/SULLIVAN WI
100 PM CDT TUE JUL 26 2016

NOTE: "FAIR" INDICATES FEW OR NO CLOUDS BELOW 12,000 FEET WITH NO
SIGNIFICANT WEATHER AND/OR OBSTRUCTIONS TO VISIBILITY.

WIZ001-002-006>008-014>016-023>028-261900-
NORTHWEST WISCONSIN

CITY           SKY/WX    TMP DP  RH WIND       PRES   REMARKS
SUPERIOR ARPT  CLOUDY    81  69  67 SW12      29.94S HX  84
ASHLAND        CLOUDY    83  67  58 SW9       29.95S HX  85
6HR MIN TEMP:  71; 6HR MAX TEMP:  86;

HAYWARD        CLOUDY    85  66  53 SW13      29.99F HX  87
6HR MIN TEMP:  63; 6HR MAX TEMP:  85;

SIREN          MOSUNNY   84  66  54 SW12G18   29.99F HX  86
CUMBERLAND     SUNNY     82  63  51 SW15      30.02F HX  83
RICE LAKE      SUNNY     83  64  52 SW13      30.03F HX  85
CHETEK         SUNNY     85  67  56 W9        30.02F HX  88
LADYSMITH      SUNNY     85  65  51 SW14      30.05S HX  86
EAU CLAIRE     NOT AVBL
MENOMONIE      PTSUNNY   88  65  47 SW14      30.04F HX  89
NEW RICHMOND   SUNNY     86  62  44 SW15      30.02F HX  86
OSCEOLA        SUNNY     87  65  48 SW13      30.04S HX  88
$$

WIZ003>005-009-010-017-018-261900-
NORTH CENTRAL WISCONSIN

CITY           SKY/WX    TMP DP  RH WIND       PRES   REMARKS
MANITOWISH WTR MOSUNNY   83  64  52 W14G20    30.02F HX  84
ARBOR VITAE    SUNNY     84  64  50 SW12      30.02F HX  85
WOODRUFF       SUNNY     84  64  50 SW12      30.02F HX  85
RHINELANDER    SUNNY     86  63  45 SW14      30.04F HX  87
6HR MIN TEMP:  66; 6HR MAX TEMP:  86;

EAGLE RIVER    SUNNY     82  60  47 SW12G18   30.02F HX  82
LAND O LAKES   SUNNY     85  62  46 SW5       30.02F HX  85
PHILLIPS       SUNNY     83  66  54 SW15G21   30.02F HX  85
6HR MIN TEMP:  64; 6HR MAX TEMP:  84;

TOMAHAWK       SUNNY     83  63  49 W10G16    30.04F HX  84
MEDFORD        SUNNY     81  69  66 SW9       30.06F HX  84
MERRILL        SUNNY     85  65  50 W12       30.05S HX  87
$$

WIZ029-030-035-036-043>047-261900-
CENTRAL WISCONSIN

CITY           SKY/WX    TMP DP  RH WIND       PRES   REMARKS
WAUSAU         SUNNY     85  63  47 SW12      30.03F HX  86
6HR MIN TEMP:  66; 6HR MAX TEMP:  85;

MOSINEE        MOSUNNY   82  66  57 SE12      30.06F HX  85
MARSHFIELD     MOSUNNY   85  67  54 SW10      30.06F HX  87
6HR MIN TEMP:  67; 6HR MAX TEMP:  85;

STEVENS POINT  MOSUNNY   82  64  53 NW5       30.06F HX  84
WAUPACA        MOSUNNY   88  64  44 SW6       30.05F HX  89
WAUTOMA        PTSUNNY   85  66  53 W7        30.05F HX  87
6HR MIN TEMP:  63; 6HR MAX TEMP:  85;

WISC RAPIDS    MOSUNNY   86  63  45 SW8       30.06F HX  87
6HR MIN TEMP:  65; 6HR MAX TEMP:  87; 6HR PCP: TRACE;

CAMP DOUGLAS   NOT AVBL
$$

WIZ011>013-019>022-031-037>040-048>050-261900-
NORTHEAST WISCONSIN

CITY           SKY/WX    TMP DP  RH WIND       PRES   REMARKS
ANTIGO         SUNNY     83  64  53 CALM      30.06F HX  84
SHAWANO        MOSUNNY   86  67  51 W10       30.03F HX  89
OCONTO         MOSUNNY   85  67  53 W10       30.01F HX  87
STURGEON BAY   SUNNY     84  65  52 VRB7      30.02F HX  86
6HR MIN TEMP:  69; 6HR MAX TEMP:  85;

GREEN BAY      MOSUNNY   84  69  60 W7        30.03F HX  88
6HR MIN TEMP:  65; 6HR MAX TEMP:  84;

MANITOWOC      NOT AVBL
APPLETON       PTSUNNY   81  63  54 W7        30.05F HX  82
CLINTONVILLE   MOSUNNY   86  63  45 W8        30.04F HX  87
OSHKOSH        SUNNY     84  64  50 W6        30.05F HX  85
6HR MIN TEMP:  66; 6HR MAX TEMP:  85;

$$

WIZ032>034-041-042-053>061-261900-
SOUTHWEST WISCONSIN

CITY           SKY/WX    TMP DP  RH WIND       PRES   REMARKS
LA CROSSE      SUNNY     87  66  49 CALM      30.05F HX  89
6HR MIN TEMP:  67; 6HR MAX TEMP:  88;

SPARTA         SUNNY     85  64  50 CALM      30.07F HX  86
VIROQUA        SUNNY     82  62  50 CALM      30.10F HX  83
BOSCOBEL       SUNNY     85  63  47 CALM      30.07F HX  86
6HR MIN TEMP:  64; 6HR MAX TEMP:  87; 6HR PCP: TRACE;

PRAIRIE DU CHI SUNNY     83  60  44 CALM      30.07F HX  83
PLATTEVILLE    PTSUNNY   82  64  55 CALM      30.09S HX  84
$$

WIZ056-057-062-063-064-067-068-261900-
SOUTH CENTRAL WISCONSIN

CITY           SKY/WX    TMP DP  RH WIND       PRES   REMARKS
REEDSBURG      PTSUNNY   82  65  56 SW3       30.07F HX  84
BARABOO/DELLS  MOSUNNY   83  61  47 W3        30.08F HX  83
LONE ROCK      NOT AVBL
MINERAL POINT  PTSUNNY   81  61  50 CALM      30.09F HX  81
MADISON        MOSUNNY   84  62  47 S3        30.06F HX  85
6HR MIN TEMP:  68; 6HR MAX TEMP:  84;

MIDDLETON      SUNNY     84  63  49 N3        30.08F HX  85
WATERTOWN      SUNNY     83  64  53 SW5       30.06F HX  84
MONROE         SUNNY     81  61  50 N3        30.08F HX  81
JANESVILLE     MOSUNNY   84  61  45 CALM      30.05F HX  84
$$

WIZ051-052-058>065-066-070>072-261900-
SOUTHEAST WISCONSIN

CITY           SKY/WX    TMP DP  RH WIND       PRES   REMARKS
MILWAUKEE      MOSUNNY   85  60  42 E9        30.05F HX  85
6HR MIN TEMP:  74; 6HR MAX TEMP:  85;

WAUKESHA       MOSUNNY   82  57  42 NW3       30.07F HX  82
MILWAUKEE/TIMM SUNNY     84  52  32 NE5       30.06  HX  82
RACINE         SUNNY     84  60  44 SE7       30.07F HX  84
6HR MIN TEMP:  71; 6HR MAX TEMP:  84;

BURLINGTON     SUNNY     84  59  43 CALM      30.06F HX  83
KENOSHA        SUNNY     84  61  45 MISG      30.05F HX  84
6HR MIN TEMP:  70; 6HR MAX TEMP:  85;

FOND DU LAC    MOSUNNY   85  62  46 SW5       30.06F HX  85
6HR MIN TEMP:  68; 6HR MAX TEMP:  86;

SHEBOYGAN      MOSUNNY   85  61  44 VRB3      30.05F HX  85
6HR MIN TEMP:  68; 6HR MAX TEMP:  85;

WEST BEND      PTSUNNY   82  57  42 W3        30.06S HX  82
JUNEAU         SUNNY     81  61  50 NW3       30.08F HX  82
$$

LSZ147-162-261900-
LAKE SUPERIOR

STATION/POSITION TIME  TEMP    WIND        PRES    WAVE
                       AIR SEA DIR/SP/G            HT/PER
                 (UTC) (F)     (DEG/KT/KT) (MB)    (FT/S)
W MID LAKE BUOY  1650   65 61  280/  4/  4 1013.3F   1
DEVILS ISLAND    1700   70     250/ 13/ 17 1013.4F
SAXON HARBOR     1700   85     250/  9/ 15 1013.9F
$$

LMZ867-665-643>646-261900-
LAKE MICHIGAN

STATION/POSITION TIME  TEMP    WIND        PRES    WAVE
                       AIR SEA DIR/SP/G            HT/PER
                 (UTC) (F)     (DEG/KT/KT) (MB)    (FT/S)
CHAMBERS ISLAND  1700   78     160/  7/ 11 1016.3
S GREEN BAY BUOY 1700   77 75  190/  8/ 10   N/A
N MID LAKE BUOY  1650   71 71  210/ 10/ 12 1015.6S   0
NORTHPORT PIER   1700   77     110/  4/  5 1015.6F
SISTER BAY       1706   84     300/  8/  8   N/A
ALGOMA LAKESHORE 1713          220/ 11/ 13   N/A
KEWAUNEE LAKESHO 1700   66     170/  7/  7 1016.7F
SHEBOYGAN LAKESH 1700   71     160/  8/  8 1017.8R
PORT WASHINGTON  1700   76     190/  6/  8 1018.3F
ATWATER BUOY     1700   65 55  180/  4/  6 1019.6F
MILWAUKEE LAKESH 1710   70     160/  2/  3   N/A
S MID LAKE BUOY  1650   77 77   CALM  /  2 1017.6F   0
KENOSHA   LAKESH 1700   72      50/  3/  4 1017.6F
$$

TC  - TEMPERATURE IN CELSIUS
VSB - VISIBILITY IN STATUTE MILES
WCI - WIND CHILL INDEX
HX  - HEAT INDEX





USA.gov is the U.S. government's official web portal to all federal, state and local government web resources and services.